Station Historical Data
Daily Summary for May 27, 2017 Units:  Metric    English   Both
« Previous Day
Next Day »
Daily Weekly Monthly Yearly Custom
  High: Low: Average:
Temperature: 20.2 °C 12.1 °C 15.4 °C
Dew Point: 13.9 °C 10.7 °C 12.1 °C
Humidity: 94% 62% 82%
Wind Speed: 11.3km/h 0km/h 2.7km/h
Wind Gust: 14.5km/h - -
Wind- - WSW
Pressure: 1013.1 hPa 1011.7 hPa -
Precipitation: 0 mm    
Historical Graphs
 
 
Tabular Data for May 27, 2017
Time Temperature Dew Point Pressure Wind Wind Speed Wind Gust Humidity Rainfall Rate (Hourly)
00:04 12.1 °C 11.2 °C 1011.7 hPa SW 3.2 km/h 9.7 km/h 94% 0.25 mm
00:09 12.1 °C 11.2 °C 1011.7 hPa SW 3.2 km/h 9.7 km/h 94% 0.25 mm
00:14 12.1 °C 11.2 °C 1011.7 hPa WSW 3.2 km/h 6.4 km/h 94% 0.25 mm
00:19 12.2 °C 11.2 °C 1012.1 hPa SW 3.2 km/h 11.3 km/h 94% 0.25 mm
00:24 12.2 °C 11.2 °C 1011.7 hPa SW 3.2 km/h 11.3 km/h 94% 0.25 mm
00:29 12.2 °C 11.2 °C 1011.7 hPa SW 3.2 km/h 8 km/h 94% 0.25 mm
00:34 12.2 °C 11.2 °C 1011.7 hPa SW 3.2 km/h 8 km/h 94% 0.25 mm
00:39 12.2 °C 11.3 °C 1011.7 hPa SW 3.2 km/h 8 km/h 94% 0.25 mm
00:44 12.2 °C 11.3 °C 1011.7 hPa SSW 4.8 km/h 9.7 km/h 94% 0.25 mm
00:49 12.2 °C 11.2 °C 1011.7 hPa SW 4.8 km/h 9.7 km/h 94% 0 mm
00:54 12.2 °C 11.2 °C 1011.7 hPa SW 3.2 km/h 6.4 km/h 94% 0 mm
00:59 12.2 °C 11.2 °C 1011.7 hPa SSW 4.8 km/h 9.7 km/h 94% 0 mm
01:04 12.3 °C 11.3 °C 1011.7 hPa SW 3.2 km/h 4.8 km/h 94% 0 mm
01:09 12.3 °C 11.3 °C 1011.7 hPa WSW 4.8 km/h 8 km/h 94% 0 mm
01:14 12.3 °C 11.3 °C 1011.7 hPa WSW 11.3 km/h 11.3 km/h 94% 0 mm
01:19 12.2 °C 11.2 °C 1011.7 hPa SW 4.8 km/h 11.3 km/h 94% 0 mm
01:24 12.2 °C 11.3 °C 1011.7 hPa SW 4.8 km/h 11.3 km/h 94% 0 mm
01:29 12.2 °C 11.2 °C 1011.7 hPa SSW 3.2 km/h 9.7 km/h 94% 0 mm
01:34 12.2 °C 11.2 °C 1011.7 hPa SW 1.6 km/h 9.7 km/h 94% 0 mm
01:39 12.2 °C 11.2 °C 1011.7 hPa WSW 3.2 km/h 8 km/h 94% 0 mm
01:44 12.2 °C 11.2 °C 1011.7 hPa SW 3.2 km/h 8 km/h 94% 0 mm
01:49 12.2 °C 11.3 °C 1011.7 hPa SW 4.8 km/h 8 km/h 94% 0 mm
01:54 12.2 °C 11.2 °C 1011.7 hPa SW 4.8 km/h 11.3 km/h 94% 0 mm
01:59 12.2 °C 11.2 °C 1012.1 hPa SW 3.2 km/h 11.3 km/h 94% 0 mm
02:04 12.2 °C 11.2 °C 1012.1 hPa SW 4.8 km/h 12.9 km/h 94% 0 mm
02:09 12.2 °C 11.2 °C 1012.1 hPa WSW 4.8 km/h 12.9 km/h 94% 0 mm
02:14 12.2 °C 11.2 °C 1012.1 hPa WSW 3.2 km/h 8 km/h 94% 0 mm
02:19 12.2 °C 11.3 °C 1012.1 hPa WSW 1.6 km/h 6.4 km/h 94% 0 mm
02:24 12.2 °C 11.3 °C 1012.1 hPa SW 8 km/h 9.7 km/h 94% 0 mm
02:29 12.2 °C 11.1 °C 1012.1 hPa SW 4.8 km/h 9.7 km/h 93% 0 mm
02:34 12.2 °C 11.3 °C 1012.1 hPa WSW 6.4 km/h 14.5 km/h 94% 0 mm
02:39 12.2 °C 11.3 °C 1012.1 hPa SSW 3.2 km/h 9.7 km/h 94% 0 mm
02:44 12.2 °C 11.2 °C 1012.1 hPa SW 4.8 km/h 9.7 km/h 94% 0 mm
02:49 12.2 °C 11.3 °C 1012.1 hPa SW 4.8 km/h 9.7 km/h 94% 0 mm
02:54 12.2 °C 11.3 °C 1012.1 hPa SW 4.8 km/h 9.7 km/h 94% 0 mm
02:59 12.2 °C 11.3 °C 1012.1 hPa SW 3.2 km/h 8 km/h 94% 0 mm
03:04 12.2 °C 11.3 °C 1012.1 hPa SW 1.6 km/h 9.7 km/h 94% 0 mm
03:09 12.2 °C 11.3 °C 1012.1 hPa SW 1.6 km/h 4.8 km/h 94% 0 mm
03:14 12.2 °C 11.3 °C 1012.1 hPa SW 1.6 km/h 4.8 km/h 94% 0 mm
03:19 12.2 °C 11.1 °C 1012.1 hPa SW 3.2 km/h 8 km/h 93% 0 mm
03:24 12.2 °C 11.1 °C 1012.1 hPa SSW 6.4 km/h 11.3 km/h 93% 0 mm
03:29 12.2 °C 11.2 °C 1012.1 hPa SW 1.6 km/h 6.4 km/h 94% 0 mm
03:34 12.2 °C 11.3 °C 1012.1 hPa WSW 3.2 km/h 11.3 km/h 94% 0 mm
03:39 12.2 °C 11.3 °C 1012.1 hPa SSW 3.2 km/h 8 km/h 94% 0 mm
03:44 12.2 °C 11.3 °C 1012.1 hPa SW 3.2 km/h 8 km/h 94% 0 mm
03:49 12.2 °C 11.1 °C 1012.1 hPa SW 4.8 km/h 8 km/h 93% 0 mm
03:54 12.2 °C 11.1 °C 1012.1 hPa SW 3.2 km/h 6.4 km/h 93% 0 mm
03:59 12.2 °C 11.3 °C 1012.1 hPa West 3.2 km/h 9.7 km/h 94% 0 mm
04:04 12.2 °C 11.1 °C 1012.1 hPa SW 8 km/h 8 km/h 93% 0 mm
04:09 12.2 °C 11.1 °C 1012.1 hPa SSW 3.2 km/h 8 km/h 93% 0 mm
04:14 12.2 °C 11.1 °C 1011.7 hPa SW 4.8 km/h 11.3 km/h 93% 0 mm
04:19 12.2 °C 11.1 °C 1012.1 hPa SW 4.8 km/h 11.3 km/h 93% 0 mm
04:24 12.2 °C 11.1 °C 1012.1 hPa SW 3.2 km/h 9.7 km/h 93% 0 mm
04:29 12.3 °C 11.2 °C 1012.1 hPa SW 3.2 km/h 9.7 km/h 93% 0 mm
04:34 12.3 °C 11.2 °C 1012.1 hPa SW 6.4 km/h 8 km/h 93% 0 mm
04:39 12.3 °C 11.2 °C 1012.1 hPa SW 3.2 km/h 9.7 km/h 93% 0 mm
04:44 12.3 °C 11.2 °C 1012.1 hPa SW 4.8 km/h 9.7 km/h 93% 0 mm
04:49 12.3 °C 11.2 °C 1012.1 hPa SW 4.8 km/h 8 km/h 93% 0 mm
04:54 12.3 °C 11.2 °C 1012.1 hPa SW 4.8 km/h 9.7 km/h 93% 0 mm
04:59 12.3 °C 11.2 °C 1012.1 hPa SW 1.6 km/h 11.3 km/h 93% 0 mm
05:04 12.3 °C 11.2 °C 1012.1 hPa SSW 6.4 km/h 9.7 km/h 93% 0 mm
05:09 12.3 °C 11.2 °C 1012.1 hPa SW 4.8 km/h 6.4 km/h 93% 0 mm
05:14 12.3 °C 11.2 °C 1012.1 hPa SW 3.2 km/h 6.4 km/h 93% 0 mm
05:19 12.3 °C 11.2 °C 1012.1 hPa SW 3.2 km/h 6.4 km/h 93% 0 mm
05:24 12.3 °C 11.2 °C 1012.1 hPa SW 1.6 km/h 6.4 km/h 93% 0 mm
05:29 12.3 °C 11.2 °C 1012.1 hPa WSW 3.2 km/h 6.4 km/h 93% 0 mm
05:34 12.4 °C 11.3 °C 1012.1 hPa Calm     93% 0 mm
05:39 12.4 °C 11.3 °C 1012.1 hPa SW 1.6 km/h 6.4 km/h 93% 0 mm
05:44 12.4 °C 11.3 °C 1012.1 hPa SW 1.6 km/h 6.4 km/h 93% 0 mm
05:49 12.4 °C 11.3 °C 1012.1 hPa SW 1.6 km/h 4.8 km/h 93% 0 mm
05:54 12.4 °C 11.3 °C 1012.1 hPa SW 1.6 km/h 8 km/h 93% 0 mm
05:59 12.4 °C 11.3 °C 1012.1 hPa Calm   4.8 km/h 93% 0 mm
06:04 12.4 °C 11.3 °C 1012.1 hPa SW 1.6 km/h 6.4 km/h 93% 0 mm
06:09 12.4 °C 11.3 °C 1012.1 hPa Calm   4.8 km/h 93% 0 mm
06:14 12.4 °C 11.3 °C 1012.1 hPa Calm     93% 0 mm
06:19 12.5 °C 11.4 °C 1012.4 hPa Calm   6.4 km/h 93% 0 mm
06:24 12.5 °C 11.4 °C 1012.4 hPa SW 1.6 km/h 6.4 km/h 93% 0 mm
06:29 12.6 °C 11.4 °C 1012.4 hPa SW 1.6 km/h 6.4 km/h 93% 0 mm
06:34 12.6 °C 11.5 °C 1012.4 hPa SW 3.2 km/h 6.4 km/h 93% 0 mm
06:39 12.6 °C 11.5 °C 1012.4 hPa SW 4.8 km/h 8 km/h 93% 0 mm
06:44 12.7 °C 11.6 °C 1012.4 hPa Calm   6.4 km/h 93% 0 mm
06:49 12.7 °C 11.6 °C 1012.4 hPa SW 3.2 km/h 9.7 km/h 93% 0 mm
06:54 12.7 °C 11.6 °C 1012.4 hPa SW 4.8 km/h 9.7 km/h 93% 0 mm
06:59 12.8 °C 11.7 °C 1012.4 hPa SSW 4.8 km/h 9.7 km/h 93% 0 mm
07:04 12.8 °C 11.7 °C 1012.4 hPa SW 1.6 km/h 9.7 km/h 93% 0 mm
07:09 12.8 °C 11.7 °C 1012.4 hPa SW 3.2 km/h 6.4 km/h 93% 0 mm
07:14 12.9 °C 11.8 °C 1012.4 hPa Calm   6.4 km/h 93% 0 mm
07:19 12.9 °C 11.8 °C 1012.4 hPa SW 3.2 km/h 8 km/h 93% 0 mm
07:24 13 °C 11.7 °C 1012.8 hPa SW 4.8 km/h 8 km/h 92% 0 mm
07:29 13 °C 11.7 °C 1012.8 hPa SW 4.8 km/h 8 km/h 92% 0 mm
07:34 13 °C 11.7 °C 1012.8 hPa SW 4.8 km/h 11.3 km/h 92% 0 mm
07:39 13.1 °C 11.8 °C 1012.8 hPa WSW 1.6 km/h 9.7 km/h 92% 0 mm
07:44 13.2 °C 11.9 °C 1012.4 hPa SSW 1.6 km/h 12.9 km/h 92% 0 mm
07:49 13.3 °C 12 °C 1012.8 hPa SW 6.4 km/h 8 km/h 92% 0 mm
07:54 13.3 °C 11.9 °C 1012.4 hPa SW 4.8 km/h 9.7 km/h 91% 0 mm
07:59 13.5 °C 12.1 °C 1012.4 hPa WSW 4.8 km/h 9.7 km/h 91% 0 mm
08:04 13.6 °C 12.2 °C 1012.4 hPa SSW 1.6 km/h 9.7 km/h 91% 0 mm
08:09 13.6 °C 12 °C 1012.4 hPa SW 1.6 km/h 8 km/h 90% 0 mm
08:14 13.8 °C 12.2 °C 1012.4 hPa SSW 6.4 km/h 8 km/h 90% 0 mm
08:19 13.8 °C 12.2 °C 1012.4 hPa South 4.8 km/h 9.7 km/h 90% 0 mm
08:24 13.8 °C 12.2 °C 1012.4 hPa SSW 3.2 km/h 9.7 km/h 90% 0 mm
08:29 13.9 °C 12.3 °C 1012.4 hPa SW 1.6 km/h 6.4 km/h 90% 0 mm
08:34 14.1 °C 12.4 °C 1012.4 hPa WSW 1.6 km/h 4.8 km/h 90% 0 mm
08:39 14.2 °C 12.4 °C 1012.8 hPa WSW 3.2 km/h 6.4 km/h 89% 0 mm
08:44 14.2 °C 12.4 °C 1012.8 hPa WSW 3.2 km/h 6.4 km/h 89% 0 mm
08:49 14.1 °C 12.3 °C 1012.8 hPa WSW 1.6 km/h 9.7 km/h 89% 0 mm
08:54 14.2 °C 12.4 °C 1012.8 hPa WSW 3.2 km/h 9.7 km/h 89% 0 mm
08:59 14.3 °C 12.4 °C 1012.8 hPa SW 1.6 km/h 6.4 km/h 88% 0 mm
09:04 14.4 °C 12.7 °C 1012.4 hPa SW 1.6 km/h 4.8 km/h 89% 0 mm
09:09 14.5 °C 12.6 °C 1012.8 hPa Calm   9.7 km/h 88% 0 mm
09:14 14.6 °C 12.6 °C 1012.8 hPa SW 4.8 km/h 8 km/h 88% 0 mm
09:19 14.6 °C 12.7 °C 1012.8 hPa SSW 4.8 km/h 8 km/h 88% 0 mm
09:24 14.7 °C 12.7 °C 1012.8 hPa SW 4.8 km/h 9.7 km/h 88% 0 mm
09:29 14.8 °C 12.8 °C 1012.8 hPa SW 4.8 km/h 9.7 km/h 88% 0 mm
09:34 14.7 °C 12.6 °C 1012.8 hPa SW 4.8 km/h 9.7 km/h 87% 0 mm
09:39 14.7 °C 12.8 °C 1013.1 hPa SW 4.8 km/h 8 km/h 88% 0 mm
09:44 14.7 °C 12.5 °C 1013.1 hPa WSW 4.8 km/h 8 km/h 87% 0 mm
09:49 14.4 °C 12.3 °C 1013.1 hPa WSW 4.8 km/h 9.7 km/h 87% 0 mm
09:54 14.4 °C 12.3 °C 1013.1 hPa WSW 4.8 km/h 11.3 km/h 87% 0 mm
09:59 14.4 °C 12.3 °C 1012.8 hPa SW 4.8 km/h 9.7 km/h 87% 0 mm
10:04 14.6 °C 12.4 °C 1012.8 hPa WSW 3.2 km/h 9.7 km/h 87% 0 mm
10:09 14.9 °C 12.7 °C 1012.8 hPa SW 6.4 km/h 9.7 km/h 87% 0 mm
10:14 14.9 °C 12.6 °C 1013.1 hPa SW 3.2 km/h 9.7 km/h 86% 0 mm
10:19 14.9 °C 12.4 °C 1013.1 hPa WSW 4.8 km/h 9.7 km/h 85% 0 mm
10:24 14.8 °C 12.4 °C 1013.1 hPa West 6.4 km/h 11.3 km/h 86% 0 mm
10:29 14.9 °C 12.4 °C 1013.1 hPa WSW 4.8 km/h 12.9 km/h 85% 0 mm
10:34 15.4 °C 13.1 °C 1013.1 hPa West 4.8 km/h 12.9 km/h 86% 0 mm
10:39 15.3 °C 12.7 °C 1013.1 hPa West 4.8 km/h 9.7 km/h 84% 0 mm
10:44 15.4 °C 12.8 °C 1013.1 hPa West 1.6 km/h 8 km/h 84% 0 mm
10:49 15.7 °C 12.9 °C 1013.1 hPa WSW 1.6 km/h 6.4 km/h 84% 0 mm
10:54 15.6 °C 13.1 °C 1013.1 hPa WSW 4.8 km/h 9.7 km/h 85% 0 mm
10:59 15.6 °C 12.9 °C 1013.1 hPa WSW 4.8 km/h 9.7 km/h 84% 0 mm
11:04 15.7 °C 12.8 °C 1012.8 hPa WSW 3.2 km/h 8 km/h 83% 0 mm
11:09 15.9 °C 13 °C 1013.1 hPa WSW 4.8 km/h 8 km/h 83% 0 mm
11:14 16 °C 12.9 °C 1013.1 hPa SSW 3.2 km/h 8 km/h 82% 0 mm
11:19 16.2 °C 13.2 °C 1012.8 hPa SW 6.4 km/h 9.7 km/h 82% 0 mm
11:24 16 °C 12.7 °C 1012.8 hPa SW 3.2 km/h 9.7 km/h 81% 0 mm
11:29 16.2 °C 13.2 °C 1012.8 hPa SW 3.2 km/h 9.7 km/h 82% 0 mm
11:34 16.6 °C 13.7 °C 1012.8 hPa SW 6.4 km/h 8 km/h 83% 0 mm
11:39 17 °C 13.5 °C 1012.8 hPa SW 3.2 km/h 8 km/h 80% 0 mm
11:44 17.2 °C 13.7 °C 1012.8 hPa SSW 3.2 km/h 8 km/h 80% 0 mm
11:49 17.3 °C 13.8 °C 1012.8 hPa SW 3.2 km/h 6.4 km/h 80% 0 mm
11:54 17.2 °C 13.3 °C 1012.8 hPa SW 3.2 km/h 8 km/h 78% 0 mm
11:59 17.5 °C 13.6 °C 1013.1 hPa SW 4.8 km/h 9.7 km/h 78% 0 mm
12:04 17.8 °C 13.9 °C 1012.8 hPa SW 6.4 km/h 9.7 km/h 78% 0 mm
12:09 17.6 °C 13.3 °C 1013.1 hPa WSW 4.8 km/h 9.7 km/h 76% 0 mm
12:14 18.2 °C 13.9 °C 1013.1 hPa WSW 4.8 km/h 11.3 km/h 76% 0 mm
12:19 18.1 °C 13.8 °C 1013.1 hPa West 3.2 km/h 9.7 km/h 76% 0 mm
12:24 18.3 °C 13.2 °C 1013.1 hPa West 1.6 km/h 8 km/h 72% 0 mm
12:29 18.2 °C 13.2 °C 1012.8 hPa Calm   9.7 km/h 73% 0 mm
12:34 18.6 °C 13.8 °C 1012.8 hPa WNW 6.4 km/h 9.7 km/h 74% 0 mm
12:39 18.4 °C 13.5 °C 1012.8 hPa Calm   9.7 km/h 73% 0 mm
12:44 18.4 °C 13.3 °C 1012.8 hPa Calm   6.4 km/h 72% 0 mm
12:49 18.2 °C 13.5 °C 1013.1 hPa WNW 6.4 km/h 11.3 km/h 74% 0 mm
12:54 18.3 °C 12.9 °C 1013.1 hPa WSW 4.8 km/h 11.3 km/h 71% 0 mm
12:59 18.4 °C 13.3 °C 1013.1 hPa West 4.8 km/h 11.3 km/h 72% 0 mm
13:04 18.2 °C 13.1 °C 1013.1 hPa WNW 3.2 km/h 11.3 km/h 72% 0 mm
13:09 18 °C 12.7 °C 1012.8 hPa WNW 3.2 km/h 11.3 km/h 71% 0 mm
13:14 17.9 °C 12.6 °C 1012.8 hPa West 3.2 km/h 8 km/h 71% 0 mm
13:19 17.9 °C 13.1 °C 1013.1 hPa West 3.2 km/h 8 km/h 73% 0 mm
13:24 18 °C 13.3 °C 1012.8 hPa NW 4.8 km/h 6.4 km/h 74% 0 mm
13:29 18 °C 13.1 °C 1012.8 hPa NW 1.6 km/h 4.8 km/h 73% 0 mm
13:34 18.2 °C 13.2 °C 1013.1 hPa West 3.2 km/h 8 km/h 73% 0 mm
13:39 18 °C 12.9 °C 1013.1 hPa WNW 3.2 km/h 6.4 km/h 72% 0 mm
13:44 18.3 °C 13.3 °C 1013.1 hPa WNW 4.8 km/h 11.3 km/h 73% 0 mm
13:49 18.4 °C 13.4 °C 1013.1 hPa West 3.2 km/h 9.7 km/h 73% 0 mm
13:54 18.3 °C 13.2 °C 1013.1 hPa West 3.2 km/h 9.7 km/h 72% 0 mm
13:59 18.5 °C 13.3 °C 1013.1 hPa WNW 4.8 km/h 9.7 km/h 72% 0 mm
14:04 18.5 °C 13.2 °C 1013.1 hPa WNW 4.8 km/h 9.7 km/h 71% 0 mm
14:09 18.8 °C 13.4 °C 1013.1 hPa WNW 4.8 km/h 9.7 km/h 71% 0 mm
14:14 19 °C 13.4 °C 1012.8 hPa WNW 4.8 km/h 8 km/h 70% 0 mm
14:19 18.9 °C 13.1 °C 1013.1 hPa WNW 4.8 km/h 12.9 km/h 69% 0 mm
14:24 19 °C 13.2 °C 1012.8 hPa WNW 3.2 km/h 8 km/h 69% 0 mm
14:29 18.8 °C 12.5 °C 1012.8 hPa West 3.2 km/h 8 km/h 67% 0 mm
14:34 18.7 °C 13.3 °C 1012.8 hPa WSW 3.2 km/h 8 km/h 71% 0 mm
14:39 19.1 °C 13.2 °C 1012.8 hPa WSW 3.2 km/h 8 km/h 69% 0 mm
14:44 19.2 °C 13.8 °C 1012.4 hPa SW 1.6 km/h 6.4 km/h 71% 0 mm
14:49 19.3 °C 13.3 °C 1012.4 hPa Calm   6.4 km/h 68% 0 mm
14:59 19 °C 12.5 °C 1012.4 hPa WSW 3.2 km/h 9.7 km/h 66% 0 mm
15:04 18.9 °C 13.1 °C 1012.4 hPa SW 4.8 km/h 9.7 km/h 69% 0 mm
15:09 19.3 °C 13.1 °C 1012.4 hPa SW 3.2 km/h 9.7 km/h 67% 0 mm
15:14 19.2 °C 13.2 °C 1012.4 hPa WSW 1.6 km/h 8 km/h 68% 0 mm
15:19 19 °C 12.9 °C 1012.4 hPa SW 11.3 km/h 11.3 km/h 68% 0 mm
15:24 19.1 °C 13.3 °C 1012.4 hPa WSW 1.6 km/h 11.3 km/h 69% 0 mm
15:29 19.1 °C 13 °C 1012.4 hPa WSW 1.6 km/h 6.4 km/h 68% 0 mm
15:34 19 °C 13.2 °C 1012.4 hPa WSW 3.2 km/h 6.4 km/h 69% 0 mm
15:39 19.3 °C 13.3 °C 1012.1 hPa West 3.2 km/h 8 km/h 68% 0 mm
15:44 19.3 °C 13.2 °C 1012.1 hPa WNW 3.2 km/h 8 km/h 68% 0 mm
15:49 19.3 °C 12.8 °C 1011.7 hPa West 3.2 km/h 8 km/h 66% 0 mm
15:54 19.4 °C 13.1 °C 1011.7 hPa West 3.2 km/h 6.4 km/h 67% 0 mm
15:59 19.4 °C 13.1 °C 1012.1 hPa Calm   4.8 km/h 67% 0 mm
16:04 19.7 °C 13.6 °C 1012.1 hPa WSW 4.8 km/h 8 km/h 68% 0 mm
16:09 19.7 °C 13.1 °C 1012.1 hPa WSW 4.8 km/h 6.4 km/h 66% 0 mm
16:14 19.2 °C 12.7 °C 1012.1 hPa West 6.4 km/h 6.4 km/h 66% 0 mm
16:19 19.4 °C 13.2 °C 1012.1 hPa WNW 3.2 km/h 8 km/h 67% 0 mm
16:24 19.3 °C 12.8 °C 1012.1 hPa NW 3.2 km/h 6.4 km/h 66% 0 mm
16:29 19.2 °C 12.9 °C 1012.1 hPa West 6.4 km/h 6.4 km/h 67% 0 mm
16:34 19.2 °C 12.7 °C 1012.1 hPa WNW 3.2 km/h 8 km/h 66% 0 mm
16:39 19.1 °C 12.8 °C 1012.4 hPa West 3.2 km/h 8 km/h 67% 0 mm
16:44 19 °C 12.7 °C 1012.4 hPa WNW 3.2 km/h 9.7 km/h 67% 0 mm
16:49 18.9 °C 12.7 °C 1012.1 hPa WNW 4.8 km/h 6.4 km/h 67% 0 mm
16:54 18.8 °C 12.6 °C 1012.4 hPa Calm   4.8 km/h 67% 0 mm
16:59 18.8 °C 12.3 °C 1012.1 hPa Calm   4.8 km/h 66% 0 mm
17:04 18.7 °C 12.4 °C 1012.4 hPa WNW 1.6 km/h 4.8 km/h 67% 0 mm
17:09 18.8 °C 12.6 °C 1012.4 hPa WNW 1.6 km/h 4.8 km/h 67% 0 mm
17:14 18.8 °C 13 °C 1012.4 hPa WNW 1.6 km/h 4.8 km/h 69% 0 mm
17:19 18.8 °C 12.6 °C 1012.1 hPa NW 1.6 km/h 4.8 km/h 67% 0 mm
17:24 18.8 °C 12.6 °C 1012.4 hPa NW 3.2 km/h 6.4 km/h 67% 0 mm
17:29 19 °C 12.5 °C 1012.4 hPa NW 1.6 km/h 6.4 km/h 66% 0 mm
17:34 19.1 °C 12.1 °C 1012.4 hPa NW 1.6 km/h 4.8 km/h 64% 0 mm
17:39 19.3 °C 13.2 °C 1012.4 hPa Calm   3.2 km/h 68% 0 mm
17:44 19.9 °C 13.4 °C 1012.1 hPa Calm   4.8 km/h 66% 0 mm
17:49 20.2 °C 12.9 °C 1012.1 hPa NNW 1.6 km/h 4.8 km/h 63% 0 mm
17:54 19.9 °C 12.9 °C 1012.4 hPa Calm   6.4 km/h 64% 0 mm
17:59 19.8 °C 12.6 °C 1012.4 hPa North 1.6 km/h 6.4 km/h 63% 0 mm
18:04 19.8 °C 12.3 °C 1012.4 hPa NNW 1.6 km/h 6.4 km/h 62% 0 mm
18:09 19.5 °C 12.5 °C 1012.4 hPa NW 1.6 km/h 4.8 km/h 64% 0 mm
18:14 19.4 °C 12.4 °C 1012.4 hPa WNW 1.6 km/h 4.8 km/h 64% 0 mm
18:19 19.3 °C 12.6 °C 1012.4 hPa WNW 1.6 km/h 4.8 km/h 65% 0 mm
18:24 19.5 °C 12.3 °C 1012.4 hPa WNW 3.2 km/h 4.8 km/h 63% 0 mm
18:29 19.4 °C 12.7 °C 1012.4 hPa WNW 1.6 km/h 4.8 km/h 65% 0 mm
18:34 19.3 °C 13.3 °C 1012.4 hPa Calm   3.2 km/h 68% 0 mm
18:39 19.3 °C 13 °C 1012.4 hPa Calm   6.4 km/h 67% 0 mm
18:44 19.3 °C 13 °C 1012.4 hPa Calm     67% 0 mm
18:49 19.2 °C 12.9 °C 1012.4 hPa Calm   3.2 km/h 67% 0 mm
18:54 19.2 °C 13.1 °C 1012.8 hPa Calm   1.6 km/h 68% 0 mm
18:59 19.2 °C 12.9 °C 1012.8 hPa South 1.6 km/h 6.4 km/h 67% 0 mm
19:04 19.3 °C 12.8 °C 1012.8 hPa South 1.6 km/h 6.4 km/h 66% 0 mm
19:09 19.3 °C 12.3 °C 1012.8 hPa NNW 1.6 km/h 6.4 km/h 64% 0 mm
19:14 19.2 °C 12.5 °C 1012.8 hPa NW 1.6 km/h 6.4 km/h 65% 0 mm
19:19 19.1 °C 12.4 °C 1012.8 hPa NW 1.6 km/h 6.4 km/h 65% 0 mm
19:24 19.1 °C 12.6 °C 1013.1 hPa NNW 3.2 km/h 8 km/h 66% 0 mm
19:29 18.9 °C 12.2 °C 1013.1 hPa NNW 1.6 km/h 4.8 km/h 65% 0 mm
19:34 18.8 °C 12.1 °C 1012.8 hPa NNW 1.6 km/h 4.8 km/h 65% 0 mm
19:39 18.9 °C 11.9 °C 1012.8 hPa Calm   3.2 km/h 64% 0 mm
19:44 18.9 °C 12 °C 1012.8 hPa Calm   4.8 km/h 64% 0 mm
19:49 18.8 °C 12.5 °C 1012.8 hPa SSW 1.6 km/h 6.4 km/h 67% 0 mm
19:54 18.4 °C 12.4 °C 1012.8 hPa Calm   8 km/h 68% 0 mm
19:59 18.2 °C 12.4 °C 1012.8 hPa SW 1.6 km/h 4.8 km/h 69% 0 mm
20:04 18.2 °C 12.7 °C 1012.8 hPa SW 1.6 km/h 4.8 km/h 70% 0 mm
20:09 18.1 °C 12.6 °C 1012.8 hPa SW 1.6 km/h 4.8 km/h 70% 0 mm
20:14 18.1 °C 12.3 °C 1012.8 hPa Calm   3.2 km/h 69% 0 mm
20:19 18 °C 12.4 °C 1012.8 hPa Calm   3.2 km/h 70% 0 mm
20:24 17.9 °C 12.1 °C 1012.8 hPa Calm   3.2 km/h 69% 0 mm
20:29 17.9 °C 12.1 °C 1012.8 hPa SW 1.6 km/h 3.2 km/h 69% 0 mm
20:34 17.8 °C 12.1 °C 1012.8 hPa Calm   3.2 km/h 69% 0 mm
20:39 17.7 °C 12.2 °C 1012.8 hPa Calm   1.6 km/h 70% 0 mm
20:44 17.7 °C 12.3 °C 1012.8 hPa Calm   1.6 km/h 71% 0 mm
20:49 17.5 °C 12.2 °C 1012.8 hPa Calm     71% 0 mm
20:54 17.3 °C 12.2 °C 1012.4 hPa Calm     72% 0 mm
20:59 17.1 °C 11.9 °C 1012.4 hPa Calm     72% 0 mm
21:04 16.8 °C 11.9 °C 1012.4 hPa Calm     73% 0 mm
21:09 16.6 °C 11.9 °C 1012.4 hPa Calm     74% 0 mm
21:14 16.4 °C 11.7 °C 1012.4 hPa Calm     74% 0 mm
21:19 16.3 °C 11.8 °C 1012.4 hPa Calm   3.2 km/h 75% 0 mm
21:24 16.1 °C 11.7 °C 1012.4 hPa Calm   1.6 km/h 75% 0 mm
21:29 15.7 °C 11.5 °C 1012.8 hPa Calm     76% 0 mm
21:34 15.5 °C 11.7 °C 1012.8 hPa Calm     78% 0 mm
21:39 15.2 °C 11.4 °C 1012.8 hPa Calm     78% 0 mm
21:44 15.1 °C 11.4 °C 1012.8 hPa Calm     79% 0 mm
21:49 14.8 °C 11.4 °C 1012.8 hPa Calm     80% 0 mm
21:54 14.7 °C 11.3 °C 1012.8 hPa Calm     80% 0 mm
21:59 14.6 °C 11.6 °C 1012.8 hPa Calm     82% 0 mm
22:04 14.5 °C 11.4 °C 1012.4 hPa Calm     82% 0 mm
22:09 14.4 °C 11.3 °C 1012.8 hPa Calm     82% 0 mm
22:14 14.3 °C 11.3 °C 1012.4 hPa Calm     82% 0 mm
22:19 14.2 °C 11.1 °C 1012.4 hPa Calm     82% 0 mm
22:24 14.1 °C 11.3 °C 1012.4 hPa Calm     83% 0 mm
22:29 13.9 °C 11.1 °C 1012.4 hPa Calm     83% 0 mm
22:34 14.2 °C 11.5 °C 1012.1 hPa Calm   3.2 km/h 84% 0 mm
22:39 14.2 °C 11.6 °C 1012.1 hPa Calm     84% 0 mm
22:44 14.2 °C 11.6 °C 1012.4 hPa Calm     84% 0 mm
22:49 14.1 °C 11.4 °C 1012.4 hPa Calm     84% 0 mm
22:54 13.9 °C 11.2 °C 1012.4 hPa Calm     84% 0 mm
22:59 13.7 °C 11.2 °C 1012.4 hPa Calm     85% 0 mm
23:04 13.6 °C 11.1 °C 1012.8 hPa Calm     85% 0 mm
23:09 13.3 °C 11.1 °C 1012.8 hPa Calm     86% 0 mm
23:14 13.2 °C 10.9 °C 1012.8 hPa Calm     86% 0 mm
23:19 13.1 °C 10.9 °C 1012.4 hPa Calm     87% 0 mm
23:24 13.1 °C 10.9 °C 1012.4 hPa Calm     87% 0 mm
23:29 13 °C 10.9 °C 1012.8 hPa Calm     87% 0 mm
23:34 13.1 °C 11.1 °C 1013.1 hPa Calm     88% 0 mm
23:44 12.8 °C 10.8 °C 1013.1 hPa Calm     88% 0 mm
23:49 12.7 °C 10.7 °C 1013.1 hPa Calm     88% 0 mm
23:54 12.6 °C 10.7 °C 1013.1 hPa Calm     88% 0 mm
Buffalo, New York, USA
Compliments of Weather Underground - 2.5 mb